Dalaman, Turkey

3:31 PM +03 on December 03, 2016 (GMT +0300)
Dalaman

Weather History for LTBS - March, 2013

Change the Weather History Date:

Friday, March 1, 2013

  Actual Average Record
Temperature  
Mean Temperature 53 °F -  
Max Temperature 62 °F 62 °F 78 °F (2016)
Min Temperature 44 °F 44 °F 35 °F (2012)
Degree Days  
Heating Degree Days 12    
Growing Degree Days 3 (Base 50)    
Moisture  
Dew Point 39 °F    
Average Humidity 60    
Maximum Humidity 82    
Minimum Humidity 31    
Precipitation  
Precipitation 0.00 in - - ()
Sea Level Pressure  
Sea Level Pressure 29.97 in    
Wind  
Wind Speed 9 mph ()    
Max Wind Speed 14 mph    
Max Gust Speed -    
Visibility 6.1 miles    
Events      
Averages and records for this station are not official NWS values.
T = Trace of Precipitation, MM = Missing Value Source: Averaged Metar Reports

Daily Weather History Graph

Daily Weather History Graph

Search for Another Location

Airport or City:

Trip Planner

Search our weather history database for the weather conditions in past years. The results will help you decide how hot, cold, wet, or windy it might be!

Date:

Astronomy

Mar. 01, 2013 Rise Set
Actual Time 6:35 AM EET 5:59 PM EET
Civil Twilight 6:09 AM EET 6:25 PM EET
Nautical Twilight 5:39 AM EET 6:55 PM EET
Astronomical Twilight 5:09 AM EET 7:25 PM EET
Moon 10:02 PM EET (3/1) 8:16 AM EET (3/1)
Length of Visible Light 12h 15m
Length of Day
11h 23m
Waning Gibbous, 86% of the Moon is Illuminated
Mar 1
Waning Gibbous
Mar 4
Last Quarter
Mar 11
New
Mar 19
First Quarter
Mar 27
Full

Hourly Weather History & Observations

Time (EET) Temp. Windchill Dew Point Humidity Pressure Visibility Wind Dir Wind Speed Gust Speed Precip Events Conditions
12:20 AM 48.2 °F - 37.4 °F 66% 30.01 in - NNE 9.2 mph - N/A   Clear
12:50 AM 50.0 °F - 37.4 °F 62% 30.01 in - NE 10.4 mph - N/A   Clear
1:20 AM 46.4 °F 42.4 °F 37.4 °F 71% 30.01 in - North 8.1 mph - N/A   Clear
1:50 AM 46.4 °F 42.9 °F 37.4 °F 71% 29.98 in - NE 6.9 mph - N/A   Clear
2:00 AM 46 °F - 38 °F 65% 30.01 in 6 mi NE 6.9 mph - -  
2:20 AM 48.2 °F - 35.6 °F 62% 29.98 in - North 8.1 mph - N/A   Clear
2:50 AM 46.4 °F 41.9 °F 37.4 °F 71% 29.98 in - North 9.2 mph - N/A   Clear
3:20 AM 48.2 °F - 35.6 °F 62% 29.98 in - NNW 12.7 mph - N/A   Clear
3:50 AM 46.4 °F 44.3 °F 37.4 °F 71% 29.98 in - North 4.6 mph - N/A   Clear
4:20 AM 48.2 °F - 35.6 °F 62% 29.98 in - NNW 13.8 mph - N/A   Clear
4:50 AM 44.6 °F 39.7 °F 37.4 °F 76% 29.98 in - North 9.2 mph - N/A   Clear
5:20 AM 46.4 °F 41.9 °F 35.6 °F 66% 29.98 in - North 9.2 mph - N/A   Clear
5:50 AM 44.6 °F 38.4 °F 37.4 °F 76% 29.98 in - North 12.7 mph - N/A   Clear
6:20 AM 44.6 °F 38.8 °F 37.4 °F 76% 29.95 in - North 11.5 mph - N/A   Clear
6:50 AM 46.4 °F 41.1 °F 35.6 °F 66% 29.95 in - NNW 11.5 mph - N/A   Clear
7:20 AM 46.4 °F 44.3 °F 37.4 °F 71% 29.95 in - ENE 4.6 mph - N/A   Clear
7:50 AM 50.0 °F - 35.6 °F 58% 29.98 in - North 11.5 mph - N/A   Clear
8:00 AM 50 °F - 35 °F 45% 29.98 in 6 mi North 11.5 mph - -  
8:20 AM 51.8 °F - 35.6 °F 54% 29.98 in - North 12.7 mph - N/A   Clear
8:50 AM 53.6 °F - 35.6 °F 51% 29.98 in - North 11.5 mph - N/A   Clear
9:20 AM 55.4 °F - 33.8 °F 44% 29.98 in - North 12.7 mph - N/A   Clear
9:50 AM 57.2 °F - 35.6 °F 44% 29.98 in - North 11.5 mph - N/A   Clear
10:20 AM 57.2 °F - 32.0 °F 38% 29.98 in - NNW 12.7 mph - N/A   Clear
10:50 AM 59.0 °F - 33.8 °F 39% 29.98 in - NNW 10.4 mph - N/A   Clear
11:20 AM 59.0 °F - 33.8 °F 39% 29.98 in - North 6.9 mph - N/A   Clear
11:50 AM 60.8 °F - 32.0 °F 34% 29.95 in - Variable 5.8 mph - N/A   Clear
12:20 PM 60.8 °F - 39.2 °F 45% 29.95 in - SW 12.7 mph - N/A   Clear
12:50 PM 60.8 °F - 39.2 °F 45% 29.95 in - WSW 13.8 mph - N/A   Clear
1:20 PM 60.8 °F - 39.2 °F 45% 29.95 in - WSW 13.8 mph - N/A   Clear
1:50 PM 60.8 °F - 39.2 °F 45% 29.92 in - WSW 13.8 mph - N/A   Clear
2:00 PM 61 °F - 38 °F 31% 29.94 in 6 mi WSW 13.8 mph - -  
2:20 PM 60.8 °F - 39.2 °F 45% 29.92 in - WSW 12.7 mph - N/A   Clear
2:50 PM 62.6 °F - 42.8 °F 48% 29.92 in - WSW 13.8 mph - N/A   Clear
3:20 PM 62.6 °F - 41.0 °F 45% 29.92 in - WSW 13.8 mph - N/A   Clear
3:50 PM 62.6 °F - 39.2 °F 42% 29.92 in - WSW 12.7 mph - N/A   Clear
4:20 PM 60.8 °F - 41.0 °F 48% 29.92 in 6.2 mi WSW 11.5 mph - N/A   Partly Cloudy
4:50 PM 60.8 °F - 42.8 °F 52% 29.92 in 6.2 mi WSW 10.4 mph - N/A   Partly Cloudy
5:20 PM 60.8 °F - 42.8 °F 52% 29.92 in 6.2 mi WSW 4.6 mph - N/A   Partly Cloudy
5:50 PM 59.0 °F - 44.6 °F 59% 29.92 in 6.2 mi WSW 5.8 mph - N/A   Partly Cloudy
6:20 PM 57.2 °F - 44.6 °F 63% 29.95 in - Variable 1.2 mph - N/A   Clear
6:50 PM 53.6 °F - 46.4 °F 77% 29.95 in 6.2 mi ESE 5.8 mph - N/A   Partly Cloudy
7:20 PM 51.8 °F - 46.4 °F 82% 29.95 in - ENE 4.6 mph - N/A   Clear
7:50 PM 53.6 °F - 44.6 °F 72% 29.95 in - NE 4.6 mph - N/A   Clear
8:00 PM 53 °F - 45 °F 67% 29.98 in 6 mi NE 4.6 mph - -  
8:20 PM 51.8 °F - 44.6 °F 76% 29.98 in - North 4.6 mph - N/A   Clear
8:50 PM 50.0 °F - 42.8 °F 76% 29.98 in - North 3.5 mph - N/A   Clear
9:20 PM 50.0 °F - 42.8 °F 76% 29.98 in - NE 4.6 mph - N/A   Clear
9:50 PM 50.0 °F - 42.8 °F 76% 30.01 in - North 5.8 mph - N/A   Clear
10:20 PM 48.2 °F - 42.8 °F 82% 30.01 in - NE 4.6 mph - N/A   Clear
10:50 PM 48.2 °F - 42.8 °F 82% 30.01 in - NE 4.6 mph - N/A   Clear
11:20 PM 48.2 °F - 42.8 °F 82% 30.01 in - North 9.2 mph - N/A   Clear
11:50 PM 46.4 °F 43.5 °F 41.0 °F 81% 30.01 in - NNE 5.8 mph - N/A   Clear